EW8375 Weather Reports


time (UTC)temp
C
wind
direction
speed
KPH
gust
KPH
rain 1hr
cm
rain 24hr
cm
rain mn
cm
humidity
%
barometer
mb
20260906221541 30 131 0.0 0.0 0.00 0.00 0.00 33 1000.2
20260906220040 30 131 0.0 6.4 0.00 0.00 0.00 32 1000.3
20260906214554 30 131 1.6 11.3 0.00 0.00 0.00 32 1000.5
20260906213036 31 131 1.6 4.8 0.00 0.00 0.00 31 1000.7
20260906211541 30 131 0.0 9.7 0.00 0.00 0.00 31 1000.9
20260906210048 29 131 0.0 8.0 0.00 0.00 0.00 30 1001.2
20260906204529 28 131 0.0 8.0 0.00 0.00 0.00 32 1001.3
20260906203031 29 131 3.2 9.7 0.00 0.00 0.00 32 1001.3
20260906201538 30 131 3.2 16.1 0.00 0.00 0.00 31 1001.4
20260906200022 30 131 0.0 8.0 0.00 0.00 0.00 34 1001.4
20260906194522 28 131 3.2 11.3 0.00 0.00 0.00 35 1001.4
20260906193023 28 131 3.2 11.3 0.00 0.00 0.00 38 1001.6
20260906191514 29 131 0.0 9.7 0.00 0.00 0.00 39 1001.9
20260906190010 28 131 1.6 14.5 0.00 0.00 0.00 39 1002.1
20260906184508 28 131 1.6 8.0 0.00 0.00 0.00 41 1002.4
20260906183007 27 131 0.0 11.3 0.00 0.00 0.00 42 1002.7
20260906181502 27 131 0.0 6.4 0.00 0.00 0.00 41 1003.1
20260906180125 26 131 0.0 8.0 0.00 0.00 0.00 43 1003.3
20260906174604 26 131 0.0 4.8 0.00 0.00 0.00 47 1003.6
20260906173100 26 131 0.0 6.4 0.00 0.00 0.00 49 1004.1
20260906171554 25 131 0.0 11.3 0.00 0.00 0.00 51 1004.2
20260906170053 25 131 4.8 11.3 0.00 0.00 0.00 53 1004.2
20260906164549 24 131 0.0 9.7 0.00 0.00 0.00 57 1004.5
20260906163055 23 131 1.6 6.4 0.00 0.00 0.00 57 1004.4
20260906161546 22 131 0.0 6.4 0.00 0.00 0.00 61 1004.4
20260906160046 22 131 1.6 9.7 0.00 0.00 0.00 64 1004.3
20260906154546 22 131 1.6 9.7 0.00 0.00 0.00 65 1004.2
20260906153108 22 131 4.8 9.7 0.00 0.00 0.00 65 1004.3
20260906151553 21 131 0.0 4.8 0.00 0.00 0.00 70 1004.5
20260906150044 20 131 3.2 4.8 0.00 0.00 0.00 71 1004.6
20260906144545 19 131 0.0 4.8 0.00 0.00 0.00 75 1004.7
20260906143044 20 131 0.0 6.4 0.00 0.00 0.00 72 1004.7
20260906141540 20 131 1.6 4.8 0.00 0.00 0.00 72 1004.4
20260906140037 18 131 1.6 6.4 0.00 0.00 0.00 76 1004.4
20260906134549 18 131 3.2 8.0 0.00 0.00 0.00 78 1004.4
20260906133042 17 131 0.0 4.8 0.00 0.00 0.00 80 1004.5
20260906131532 17 131 0.0 0.0 0.00 0.00 0.00 80 1004.6
20260906130033 16 131 0.0 0.0 0.00 0.00 0.00 81 1004.5
20260906124529 16 131 0.0 0.0 0.00 0.00 0.00 82 1004.4
20260906123047 16 131 0.0 0.0 0.00 0.00 0.00 80 1004.3
20260906121527 16 131 0.0 0.0 0.00 0.00 0.00 80 1004.2
20260906120025 16 131 0.0 0.0 0.00 0.00 0.00 81 1004.1
20260906114524 15 131 0.0 0.0 0.00 0.00 0.00 79 1004.1
20260906113023 15 131 0.0 3.2 0.00 0.00 0.00 77 1004.1
20260906111525 16 131 0.0 0.0 0.00 0.00 0.00 76 1004.0
20260906110017 16 131 0.0 0.0 0.00 0.00 0.00 73 1003.9
20260906104514 17 131 0.0 0.0 0.00 0.00 0.00 74 1004.2
20260906103012 16 131 0.0 3.2 0.00 0.00 0.00 69 1004.1
20260906101521 17 131 0.0 3.2 0.00 0.00 0.00 70 1004.1
20260906100009 17 131 0.0 1.6 0.00 0.00 0.00 68 1004.2
20260906094505 17 131 0.0 0.0 0.00 0.00 0.00 64 1004.1
20260906093001 18 131 0.0 0.0 0.00 0.00 0.00 61 1004.2
20260906091559 18 131 0.0 4.8 0.00 0.00 0.00 58 1003.7
20260906090114 18 131 0.0 3.2 0.00 0.00 0.00 56 1003.4
20260906084556 19 131 0.0 3.2 0.00 0.00 0.00 54 1003.4
20260906083053 19 131 0.0 6.4 0.00 0.00 0.00 52 1003.4
20260906081554 19 131 0.0 0.0 0.00 0.00 0.00 50 1003.4
20260906080055 19 131 0.0 1.6 0.00 0.00 0.00 47 1003.4
20260906074548 20 131 0.0 1.6 0.00 0.00 0.00 47 1003.5
20260906073057 21 131 0.0 1.6 0.00 0.00 0.00 44 1003.5
20260906071541 22 131 0.0 1.6 0.00 0.00 0.00 42 1003.4
20260906070043 21 131 0.0 6.4 0.00 0.00 0.00 42 1003.4
20260906064539 21 131 0.0 0.0 0.00 0.00 0.00 44 1003.4
20260906063046 20 131 0.0 4.8 0.00 0.00 0.00 45 1003.4
20260906061535 20 131 0.0 0.0 0.00 0.00 0.00 45 1003.3
20260906060030 21 131 0.0 1.6 0.00 0.00 0.00 43 1003.4
20260906054529 22 131 1.6 4.8 0.00 0.00 0.00 42 1003.7
20260906053029 22 131 0.0 1.6 0.00 0.00 0.00 41 1003.9
20260906051545 22 131 0.0 1.6 0.00 0.00 0.00 40 1003.6
20260906050025 22 131 0.0 1.6 0.00 0.00 0.00 40 1003.1
20260906044525 22 131 0.0 0.0 0.00 0.00 0.00 39 1003.1
20260906043025 23 131 0.0 6.4 0.00 0.00 0.00 37 1002.7
20260906041524 23 131 3.2 8.0 0.00 0.00 0.00 37 1002.9
20260906040032 23 131 0.0 3.2 0.00 0.00 0.00 37 1002.5
20260906034529 22 131 0.0 0.0 0.00 0.00 0.00 39 1002.0
20260906033022 22 131 0.0 0.0 0.00 0.00 0.00 38 1002.1
20260906031529 23 131 0.0 0.0 0.00 0.00 0.00 36 1002.1
20260906030022 25 131 0.0 3.2 0.00 0.00 0.00 34 1001.5
20260906024520 25 131 1.6 8.0 0.00 0.00 0.00 31 1001.4
20260906023020 26 131 0.0 1.6 0.00 0.00 0.00 30 1000.9
20260906021520 26 131 0.0 8.0 0.00 0.00 0.00 30 1000.9
20260906020022 26 131 0.0 6.4 0.00 0.00 0.00 31 1001.0
20260906014527 25 131 0.0 3.2 0.00 0.00 0.00 32 1000.7
20260906013019 26 131 0.0 6.4 0.00 0.00 0.00 32 1000.5
20260906011518 26 131 0.0 3.2 0.00 0.00 0.00 30 1000.7
20260906010018 27 131 0.0 3.2 0.00 0.00 0.00 28 1000.6
20260906004518 28 131 1.6 6.4 0.00 0.00 0.00 27 1000.7
20260906003017 29 131 0.0 14.5 0.00 0.00 0.00 25 1000.9
20260906001516 30 131 0.0 3.2 0.00 0.00 0.00 23 1000.8
20260906000016 30 131 1.6 6.4 0.00 0.00 0.00 24 1000.6
20260905234516 30 131 0.0 11.3 0.00 0.00 0.00 23 1000.8
20260905233014 31 131 1.6 4.8 0.00 0.00 0.00 21 1000.6
20260905231522 31 131 0.0 4.8 0.00 0.00 0.00 20 1000.5
20260905230020 32 131 1.6 11.3 0.00 0.00 0.00 19 1000.3
20260905224513 32 131 1.6 8.0 0.00 0.00 0.00 19 1000.1
20260905223012 33 131 0.0 4.8 0.00 0.00 0.00 19 1000.1